FW0190 Weather Reports


time (UTC)temp
C
wind
direction
speed
KPH
gust
KPH
rain 1hr
cm
rain 24hr
cm
rain mn
cm
humidity
%
barometer
mb
20260906113550 21 306 1.6 3.2 0.00 0.00 0.00 90 1016.3
20260906113045 21 312 3.2 3.2 0.00 0.00 0.00 90 1016.1
20260906112540 21 2 3.2 4.8 0.00 0.00 0.00 90 1015.9
20260906112036 21 357 1.6 4.8 0.00 0.00 0.00 90 1015.8
20260906111536 21 97 1.6 3.2 0.00 0.00 0.00 89 1015.9
20260906111031 22 309 3.2 6.4 0.00 0.00 0.00 89 1016.0
20260906110526 22 331 3.2 6.4 0.00 0.00 0.00 89 1015.7
20260906110025 22 5 3.2 4.8 0.00 0.00 0.00 90 1015.9
20260906105520 22 293 1.6 4.8 0.00 0.00 0.00 90 1015.8
20260906105016 22 19 1.6 3.2 0.00 0.00 0.00 90 1015.8
20260906104515 22 324 3.2 6.4 0.00 0.00 0.00 90 1015.9
20260906104015 22 18 4.8 6.4 0.00 0.00 0.00 90 1016.0
20260906103513 22 357 4.8 6.4 0.00 0.00 0.00 91 1015.9
20260906103008 22 52 3.2 4.8 0.00 0.00 0.00 91 1015.9
20260906102509 22 7 1.6 4.8 0.00 0.00 0.00 91 1015.6
20260906102008 22 331 3.2 4.8 0.00 0.00 0.00 91 1015.8
20260906101503 22 330 3.2 9.7 0.00 0.00 0.00 91 1015.7
20260906100959 22 4 3.2 3.2 0.00 0.00 0.00 91 1015.5
20260906100454 22 350 3.2 11.3 0.00 0.00 0.00 91 1015.7
20260906095954 22 33 4.8 6.4 0.00 0.00 0.00 91 1015.6
20260906095449 22 21 3.2 12.9 0.00 0.00 0.00 91 1015.5
20260906094944 22 40 3.2 6.4 0.00 0.00 0.00 91 1015.6
20260906094443 22 18 6.4 9.7 0.00 0.00 0.00 91 1015.6
20260906093939 22 28 3.2 6.4 0.00 0.00 0.00 91 1015.7
20260906093436 22 293 4.8 9.7 0.00 0.00 0.00 91 1015.7
20260906092936 22 32 6.4 9.7 0.00 0.00 0.00 91 1015.7
20260906092435 22 51 4.8 11.3 0.00 0.00 0.00 90 1015.6
20260906091931 22 64 4.8 9.7 0.00 0.00 0.00 90 1015.7
20260906091427 22 54 4.8 6.4 0.00 0.00 0.00 89 1015.5
20260906090923 22 18 4.8 6.4 0.00 0.00 0.00 89 1015.7
20260906090418 22 48 6.4 11.3 0.00 0.00 0.00 89 1015.6
20260906085912 22 13 6.4 9.7 0.00 0.00 0.00 89 1015.6
20260906085412 22 327 4.8 9.7 0.00 0.00 0.00 89 1015.4
20260906084911 22 16 4.8 6.4 0.00 0.00 0.00 88 1015.4
20260906084406 21 27 3.2 6.4 0.00 0.00 0.00 88 1015.4
20260906083900 21 346 3.2 4.8 0.00 0.00 0.00 88 1015.5
20260906083356 21 19 6.4 9.7 0.00 0.00 0.00 88 1015.6
20260906082855 22 57 3.2 9.7 0.00 0.00 0.00 88 1015.5
20260906082350 22 45 8.0 12.9 0.00 0.00 0.00 87 1015.5
20260906081846 22 348 6.4 9.7 0.00 0.00 0.00 87 1015.4
20260906081342 22 30 4.8 6.4 0.00 0.00 0.00 87 1015.5
20260906080837 22 5 6.4 11.3 0.00 0.00 0.00 86 1015.3
20260906080333 22 9 4.8 4.8 0.00 0.00 0.00 86 1015.3
20260906075828 22 307 1.6 6.4 0.00 0.00 0.00 85 1015.4
20260906075328 22 49 3.2 4.8 0.00 0.00 0.00 85 1015.1
20260906074823 22 275 4.8 6.4 0.00 0.00 0.00 85 1015.3
20260906074323 22 353 3.2 11.3 0.00 0.00 0.00 85 1015.3
20260906073821 22 326 3.2 9.7 0.00 0.00 0.00 84 1015.3
20260906073316 22 5 3.2 3.2 0.00 0.00 0.00 84 1015.2
20260906072813 22 349 3.2 6.4 0.00 0.00 0.00 84 1015.1
20260906072308 22 307 1.6 4.8 0.00 0.00 0.00 84 1015.3
20260906071804 23 270 3.2 3.2 0.00 0.00 0.00 84 1015.4
20260906071304 23 347 1.6 3.2 0.00 0.00 0.00 84 1015.2
20260906070801 23 350 4.8 4.8 0.00 0.00 0.00 84 1015.2
20260906070256 23 285 1.6 3.2 0.00 0.00 0.00 84 1015.3
20260906065755 23 309 1.6 3.2 0.00 0.00 0.00 84 1015.3
20260906065251 23 305 1.6 9.7 0.00 0.00 0.00 83 1015.3
20260906064747 23 3 1.6 3.2 0.00 0.00 0.00 83 1015.4
20260906064242 23 50 3.2 6.4 0.00 0.00 0.00 83 1015.2
20260906063732 23 300 1.6 3.2 0.00 0.00 0.00 82 1015.4
20260906063227 23 14 4.8 6.4 0.00 0.00 0.00 82 1015.4
20260906062722 23 296 3.2 4.8 0.00 0.00 0.00 82 1015.4
20260906062221 24 298 1.6 4.8 0.00 0.00 0.00 82 1015.6
20260906061718 24 3 4.8 6.4 0.00 0.00 0.00 81 1015.7
20260906061213 24 11 3.2 4.8 0.00 0.00 0.00 81 1015.5
20260906060708 24 208 1.6 4.8 0.00 0.00 0.00 80 1015.6
20260906060205 24 328 3.2 3.2 0.00 0.00 0.00 80 1015.5
20260906055700 25 307 1.6 4.8 0.00 0.00 0.00 80 1015.4
20260906055155 25 3 3.2 4.8 0.00 0.00 0.00 79 1015.4
20260906054651 25 294 1.6 3.2 0.00 0.00 0.00 79 1015.3
20260906054146 25 297 0.0 3.2 0.00 0.00 0.00 78 1015.3
20260906053643 25 352 3.2 4.8 0.00 0.00 0.00 78 1015.4
20260906053137 25 306 1.6 3.2 0.00 0.00 0.00 78 1015.6
20260906052633 25 11 4.8 11.3 0.00 0.00 0.00 78 1015.6
20260906052129 25 57 6.4 9.7 0.00 0.00 0.00 78 1015.5
20260906051625 25 38 6.4 9.7 0.00 0.00 0.00 78 1015.5
20260906051120 25 70 8.0 9.7 0.00 0.00 0.00 78 1015.3
20260906050616 25 8 3.2 4.8 0.00 0.00 0.00 78 1015.5
20260906050111 25 4 3.2 6.4 0.00 0.33 0.33 78 1015.4
20260906045609 26 58 3.2 9.7 0.00 0.33 0.33 78 1015.4
20260906045104 26 58 3.2 9.7 0.00 0.33 0.33 78 1015.2
20260906044600 26 359 4.8 9.7 0.00 0.33 0.33 77 1015.2
20260906044055 26 319 4.8 6.4 0.00 0.33 0.33 77 1015.3
20260906043551 26 307 1.6 4.8 0.00 0.33 0.33 76 1015.2
20260906043047 26 336 3.2 4.8 0.00 0.33 0.33 76 1015.2
20260906042545 26 38 6.4 6.4 0.00 0.33 0.33 75 1015.1
20260906042040 26 17 3.2 4.8 0.00 0.33 0.33 75 1015.1
20260906041536 26 31 3.2 4.8 0.00 0.33 0.33 75 1015.2
20260906041031 26 301 3.2 6.4 0.00 0.33 0.33 75 1015.1
20260906040526 27 45 9.7 11.3 0.00 0.33 0.33 75 1014.9
20260906040022 27 18 3.2 4.8 0.00 0.33 0.33 75 1014.9
20260906035517 27 36 1.6 6.4 0.00 0.33 0.33 75 1014.8
20260906035013 27 307 3.2 12.9 0.00 0.33 0.33 75 1014.8
20260906034513 27 50 3.2 12.9 0.00 0.33 0.33 75 1014.8
20260906034008 27 28 8.0 14.5 0.00 0.33 0.33 75 1014.8
20260906033503 27 14 6.4 14.5 0.00 0.33 0.33 75 1014.9
20260906032958 27 11 11.3 12.9 0.00 0.33 0.33 76 1014.5
20260906032454 27 347 4.8 11.3 0.00 0.33 0.33 76 1014.5
20260906031954 27 260 6.4 12.9 0.00 0.33 0.33 76 1014.6
20260906031450 28 18 8.0 12.9 0.00 0.33 0.33 76 1014.5
20260906030945 28 33 9.7 12.9 0.00 0.33 0.33 76 1014.4
20260906030439 28 345 1.6 9.7 0.00 0.33 0.33 76 1014.4
20260906025934 28 332 3.2 4.8 0.00 0.33 0.33 75 1014.3
20260906025428 28 355 3.2 9.7 0.00 0.33 0.33 76 1014.3
20260906024927 28 350 4.8 6.4 0.00 0.33 0.33 75 1014.3
20260906024426 28 33 3.2 6.4 0.00 0.33 0.33 74 1014.2
20260906023921 28 302 4.8 6.4 0.00 0.33 0.33 74 1014.2
20260906023418 28 29 4.8 6.4 0.00 0.33 0.33 73 1013.9
20260906022918 29 324 1.6 6.4 0.00 0.33 0.33 73 1013.7
20260906022413 29 326 3.2 4.8 0.00 0.33 0.33 72 1013.9
20260906021908 29 264 0.0 1.6 0.00 0.33 0.33 72 1013.7
20260906021403 29 32 1.6 1.6 0.00 0.33 0.33 71 1013.5
20260906020857 30 296 0.0 1.6 0.00 0.33 0.33 71 1013.5
20260906020356 30 331 1.6 3.2 0.00 0.33 0.33 70 1013.4
20260906015851 30 259 1.6 3.2 0.00 0.33 0.33 70 1013.5
20260906015350 30 313 0.0 0.0 0.00 0.33 0.33 69 1013.4
20260906014845 30 260 0.0 1.6 0.00 0.33 0.33 69 1013.5
20260906014344 30 264 0.0 1.6 0.00 0.33 0.33 68 1013.6
20260906013841 30 288 0.0 1.6 0.00 0.33 0.33 67 1013.2
20260906013336 30 277 0.0 0.0 0.00 0.33 0.33 67 1013.2
20260906012831 30 270 0.0 1.6 0.00 0.33 0.33 66 1013.2
20260906012326 30 265 0.0 0.0 0.00 0.33 0.33 66 1013.1
20260906011826 31 266 0.0 0.0 0.00 0.33 0.33 65 1013.2
20260906011321 31 262 0.0 0.0 0.00 0.33 0.33 65 1013.0
20260906010817 31 275 0.0 0.0 0.00 0.33 0.33 64 1013.3
20260906010313 31 232 0.0 0.0 0.00 0.33 0.33 63 1013.2
20260906005808 31 294 0.0 0.0 0.00 0.33 0.33 63 1013.0
20260906005307 31 326 0.0 0.0 0.00 0.33 0.33 62 1012.8
20260906004806 31 264 0.0 0.0 0.00 0.33 0.33 62 1012.9
20260906004306 32 261 0.0 0.0 0.00 0.33 0.33 61 1012.8
20260906003801 32 283 0.0 0.0 0.00 0.33 0.33 60 1012.8
20260906003257 32 289 0.0 0.0 0.00 0.33 0.33 59 1012.8
20260906002752 32 280 0.0 0.0 0.00 0.33 0.33 59 1012.7
20260906002246 33 269 0.0 0.0 0.00 0.33 0.33 58 1012.5
20260906001742 33 262 0.0 0.0 0.00 0.33 0.33 57 1012.7
20260906001236 33 253 0.0 0.0 0.00 0.33 0.33 57 1012.7
20260906000732 34 287 0.0 0.0 0.00 0.33 0.33 55 1012.7
20260906000226 35 257 0.0 0.0 0.00 0.33 0.33 55 1012.8
20260905235721 35 268 0.0 0.0 0.00 0.33 0.33 54 1013.0
20260905235216 36 258 0.0 0.0 0.00 0.33 0.33 53 1013.0
20260905234712 36 266 0.0 1.6 0.00 0.33 0.33 52 1012.9
20260905234207 37 269 0.0 0.0 0.00 0.33 0.33 50 1012.9
20260905233701 37 268 0.0 3.2 0.00 0.33 0.33 49 1012.8
20260905233200 38 287 0.0 1.6 0.00 0.33 0.33 47 1012.8
20260905232655 38 254 0.0 1.6 0.00 0.33 0.33 47 1012.8
20260905232151 38 296 0.0 1.6 0.00 0.33 0.33 47 1012.9
20260905231647 38 296 0.0 1.6 0.00 0.33 0.33 46 1012.8
20260905231143 39 265 0.0 3.2 0.00 0.33 0.33 45 1012.6
20260905230633 40 266 0.0 0.0 0.00 0.33 0.33 45 1012.4
20260905230131 40 287 1.6 3.2 0.00 0.33 0.33 44 1012.5
20260905225630 40 270 0.0 1.6 0.00 0.33 0.33 44 1012.4
20260905225120 40 260 0.0 0.0 0.00 0.33 0.33 44 1012.4
20260905224620 40 267 0.0 1.6 0.00 0.33 0.33 43 1012.4
20260905224119 40 283 0.0 0.0 0.00 0.33 0.33 43 1012.3
20260905223616 40 291 1.6 3.2 0.00 0.33 0.33 42 1012.6
20260905223113 41 261 0.0 0.0 0.00 0.33 0.33 41 1012.7
20260905222612 42 253 0.0 1.6 0.00 0.33 0.33 39 1012.4
20260905222107 43 256 0.0 1.6 0.00 0.33 0.33 38 1012.5
20260905221603 44 258 1.6 3.2 0.00 0.33 0.33 37 1012.5
20260905221059 44 318 1.6 3.2 0.00 0.33 0.33 38 1012.3
20260905220554 45 268 1.6 1.6 0.00 0.33 0.33 37 1012.3
20260905220051 46 293 1.6 3.2 0.00 0.33 0.33 35 1012.5
20260905215550 47 319 1.6 3.2 0.00 0.33 0.33 34 1012.2
20260905215046 46 327 0.0 4.8 0.00 0.33 0.33 35 1012.5
20260905214542 46 267 1.6 4.8 0.00 0.33 0.33 35 1012.4
20260905214037 46 251 0.0 0.0 0.00 0.33 0.33 37 1012.6
20260905213532 45 255 0.0 0.0 0.00 0.33 0.33 39 1012.4
20260905213027 43 269 0.0 1.6 0.00 0.33 0.33 41 1012.5
20260905212522 41 257 0.0 0.0 0.00 0.33 0.33 45 1012.5
20260905212021 38 263 0.0 1.6 0.00 0.33 0.33 51 1012.5
20260905211517 36 245 0.0 1.6 0.00 0.33 0.33 54 1012.6
20260905211013 34 254 0.0 1.6 0.00 0.33 0.33 61 1012.7
20260905210508 33 257 0.0 1.6 0.00 0.33 0.33 62 1012.4
20260905210009 33 242 0.0 1.6 0.00 0.33 0.33 63 1012.8
20260905205508 32 257 0.0 1.6 0.00 0.33 0.33 64 1012.8
20260905205007 31 243 0.0 1.6 0.00 0.33 0.33 65 1013.0
20260905204503 31 236 0.0 1.6 0.00 0.33 0.33 68 1013.1
20260905204002 30 190 4.8 4.8 0.00 0.33 0.33 71 1013.1
20260905203458 30 253 0.0 1.6 0.00 0.33 0.33 70 1013.2
20260905202953 29 239 0.0 3.2 0.00 0.33 0.33 72 1013.2
20260905202448 29 242 0.0 0.0 0.00 0.33 0.33 72 1013.3
20260905201943 29 254 0.0 0.0 0.00 0.33 0.33 72 1013.2
20260905201438 28 351 1.6 3.2 0.00 0.33 0.33 71 1013.2
20260905200933 28 251 0.0 1.6 0.00 0.33 0.33 72 1013.4
20260905200429 28 272 0.0 1.6 0.00 0.33 0.33 72 1013.5
20260905195926 28 265 0.0 1.6 0.00 0.33 0.33 72 1013.3
20260905195417 28 252 0.0 0.0 0.00 0.33 0.33 71 1013.5
20260905194912 27 250 0.0 9.7 0.00 0.33 0.33 72 1013.8
20260905194412 27 274 0.0 1.6 0.00 0.33 0.33 72 1013.6
20260905193911 27 257 0.0 9.7 0.18 0.33 0.33 72 1013.7
20260905193406 27 90 1.6 20.9 1.85 0.33 0.33 69 1013.9
20260905192902 30 97 4.8 11.3 1.68 0.28 0.28 64 1014.1
20260905192357 31 18 3.2 12.9 0.13 0.03 0.03 58 1014.4
20260905191857 32 76 3.2 20.9 0.00 0.00 0.00 55 1014.2
20260905191356 34 45 11.3 14.5 0.00 0.00 0.00 52 1014.0
20260905190856 36 323 11.3 16.1 0.00 0.00 0.00 46 1014.0
20260905190354 37 359 11.3 20.9 0.00 0.00 0.00 43 1013.9
20260905185853 37 282 1.6 3.2 0.00 0.00 0.00 44 1013.4
20260905185348 37 295 3.2 4.8 0.00 0.00 0.00 45 1013.3
20260905184847 37 310 4.8 11.3 0.00 0.00 0.00 45 1013.5
20260905184347 36 344 4.8 9.7 0.00 0.00 0.00 45 1013.6
20260905183840 36 193 3.2 4.8 0.00 0.00 0.00 45 1013.6
20260905183335 36 252 1.6 3.2 0.00 0.00 0.00 46 1013.7
20260905182830 36 247 1.6 6.4 0.00 0.00 0.00 47 1013.7
20260905182329 35 16 3.2 4.8 0.00 0.00 0.00 47 1013.6
20260905181825 35 270 8.0 9.7 0.00 0.00 0.00 47 1013.9
20260905181324 35 56 9.7 12.9 0.00 0.00 0.00 48 1013.7
20260905180823 35 249 0.0 3.2 0.00 0.00 0.00 50 1013.9
20260905180319 35 239 6.4 11.3 0.00 0.00 0.00 50 1014.0
20260905175814 35 357 6.4 9.7 0.00 0.00 0.00 51 1014.2
20260905175308 35 208 3.2 4.8 0.00 0.00 0.00 51 1014.1
20260905174803 35 353 8.0 9.7 0.00 0.00 0.00 52 1014.2
20260905174259 35 275 3.2 6.4 0.00 0.00 0.00 52 1014.2
20260905173755 34 239 0.0 1.6 0.00 0.00 0.00 53 1014.0
20260905173251 34 251 4.8 6.4 0.00 0.00 0.00 53 1014.1
20260905172750 34 249 0.0 1.6 0.00 0.00 0.00 54 1014.2
20260905172249 34 301 3.2 4.8 0.00 0.00 0.00 54 1014.3
20260905171745 33 291 3.2 3.2 0.00 0.00 0.00 55 1014.1
20260905171241 33 15 1.6 3.2 0.00 0.00 0.00 55 1014.4
20260905170738 33 313 3.2 4.8 0.00 0.00 0.00 55 1014.5
20260905170233 33 237 1.6 4.8 0.00 0.00 0.00 55 1014.3
20260905165732 33 240 1.6 3.2 0.00 0.00 0.00 54 1014.6
20260905165228 33 249 0.0 3.2 0.00 0.00 0.00 55 1014.5
20260905164727 33 246 1.6 6.4 0.00 0.00 0.00 55 1014.8
20260905164222 33 241 1.6 4.8 0.00 0.00 0.00 55 1014.9
20260905163718 33 251 0.0 0.0 0.00 0.00 0.00 55 1014.6
20260905163214 33 235 0.0 0.0 0.00 0.00 0.00 56 1014.8
20260905162711 33 235 0.0 0.0 0.00 0.00 0.00 56 1014.8
20260905162210 33 235 0.0 0.0 0.00 0.00 0.00 56 1015.0
20260905161705 33 235 0.0 0.0 0.00 0.00 0.00 56 1015.0
20260905161203 32 235 0.0 0.0 0.00 0.00 0.00 56 1014.9
20260905160702 32 301 1.6 1.6 0.00 0.00 0.00 57 1014.8
20260905160156 32 244 3.2 3.2 0.00 0.00 0.00 59 1014.8
20260905155655 32 218 1.6 1.6 0.00 0.00 0.00 59 1014.9
20260905155155 32 218 1.6 1.6 0.00 0.00 0.00 59 1014.9
20260905154644 32 218 1.6 1.6 0.00 0.00 0.00 59 1015.0
20260905154139 32 218 1.6 1.6 0.00 0.00 0.00 59 1015.0
20260905153635 32 218 1.6 1.6 0.00 0.00 0.00 60 1015.1
20260905153131 31 218 1.6 1.6 0.00 0.00 0.00 61 1014.9
20260905152625 31 218 1.6 1.6 0.00 0.00 0.00 60 1014.9
20260905152120 31 218 1.6 1.6 0.00 0.00 0.00 63 1015.0
20260905151615 31 218 1.6 1.6 0.00 0.00 0.00 63 1015.1
20260905151111 31 218 1.6 1.6 0.00 0.00 0.00 63 1015.2
20260905150606 31 260 1.6 4.8 0.00 0.00 0.00 63 1015.2
20260905145557 30 266 1.6 1.6 0.00 0.00 0.00 67 1015.0
20260905145056 30 266 1.6 1.6 0.00 0.00 0.00 69 1015.1
20260905144551 29 266 1.6 1.6 0.00 0.00 0.00 71 1015.1
20260905144049 29 266 1.6 1.6 0.00 0.00 0.00 72 1014.9
20260905143544 29 266 1.6 1.6 0.00 0.00 0.00 72 1015.0
20260905143039 28 266 1.6 1.6 0.00 0.00 0.00 72 1014.9
20260905142538 28 233 0.0 1.6 0.00 0.00 0.00 74 1015.0
20260905142032 28 263 0.0 1.6 0.00 0.00 0.00 74 1015.1
20260905141527 28 236 0.0 1.6 0.00 0.00 0.00 74 1015.0
20260905141023 27 253 0.0 1.6 0.00 0.00 0.00 77 1015.1
20260905140518 27 252 0.0 0.0 0.00 0.00 0.00 77 1015.1
20260905140017 27 254 0.0 0.0 0.00 0.00 0.00 78 1015.2
20260905135513 27 266 0.0 0.0 0.00 0.00 0.00 78 1015.2
20260905135008 27 248 0.0 0.0 0.00 0.00 0.00 79 1015.1
20260905134508 26 237 0.0 0.0 0.00 0.00 0.00 80 1015.2
20260905134007 26 245 0.0 0.0 0.00 0.00 0.00 81 1015.3
20260905133502 26 248 0.0 0.0 0.00 0.00 0.00 81 1015.4
20260905133001 26 247 0.0 0.0 0.00 0.00 0.00 81 1015.3
20260905132456 26 277 0.0 0.0 0.00 0.00 0.00 82 1015.3
20260905131951 26 247 0.0 0.0 0.00 0.00 0.00 82 1015.3
20260905131448 25 246 0.0 0.0 0.00 0.00 0.00 83 1015.4
20260905130948 25 244 0.0 0.0 0.00 0.00 0.00 84 1015.3
20260905130441 25 275 0.0 0.0 0.00 0.00 0.00 84 1015.3
20260905125941 25 257 0.0 0.0 0.00 0.00 0.00 84 1015.3
20260905125436 25 247 0.0 0.0 0.00 0.00 0.00 84 1015.3
20260905124931 24 246 0.0 0.0 0.00 0.00 0.00 84 1015.1
20260905124428 24 245 0.0 0.0 0.00 0.00 0.00 85 1015.2
20260905123928 24 245 0.0 0.0 0.00 0.00 0.00 85 1015.4
20260905123424 24 246 0.0 0.0 0.00 0.00 0.00 85 1015.2
20260905122915 24 250 0.0 0.0 0.00 0.00 0.00 85 1015.2
20260905122414 23 250 0.0 0.0 0.00 0.00 0.00 85 1015.0
20260905121909 23 250 0.0 0.0 0.00 0.00 0.00 85 1015.1
20260905121405 23 250 0.0 0.0 0.00 0.00 0.00 85 1015.1
20260905120903 23 250 0.0 0.0 0.00 0.00 0.00 84 1015.0
20260905120358 23 246 0.0 0.0 0.00 0.00 0.00 84 1014.8
20260905115853 23 246 0.0 0.0 0.00 0.00 0.00 84 1015.0
20260905115352 23 252 0.0 0.0 0.00 0.00 0.00 84 1015.0
20260905114847 23 252 0.0 0.0 0.00 0.00 0.00 84 1014.9
20260905114346 23 252 0.0 0.0 0.00 0.00 0.00 84 1015.0
20260905113845 23 247 0.0 0.0 0.00 0.00 0.00 84 1014.9